User: anonymous   Login
Location: Unspecified
(0.0000°N, 0.0000°E)
Time: 23:51:20
(UTC+00:00)
Language:

NAVSTAR 65 (USA 213) - Orbit

View from above orbital plane
View from above orbital plane
View from above satellite
View from above satellite

Ground track
Ground track

The orbit data is extracted from the following two-line orbital elements,

1 36585U 10022A   14297.23181438 -.00000060  00000-0  00000+0 0  7528
2 36585 055.9933 018.9205 0036028 037.7927 075.6864 02.00552013 32281
Epoch (UTC): 24 October 2014 05:33:48
Eccentricity: 0.0036028
inclination: 55.9933°
perigee height: 20087 km
apogee height: 20279 km
right ascension of ascending node: 18.9205°
argument of perigee: 37.7927°
revolutions per day: 2.00552013
mean anomaly at epoch: 75.6864°
orbit number at epoch: 3228

The dashed part of the orbit path shows where the satellite is in the earth's shadow,  

DLR